Simultaneous Nadir Overpasses (SNOs) Predictions

Prediction of SNOs over PacNW region [( 10.00, 139.50) to ( 22.70, 165.60)] between NOAA-19 and NPP Satellites:

Table of predicted SNOs over PacNW region for the next 30.0 days since TLE Epoch: 5/26/2013
Index Date (NOAA-19) Time (NOAA-19) NOAA-19 Lat,Lon Date (NPP) Time (NPP) NPP Lat,Lon Distance(km) Time Diff (sec)
1 06/01/2013 15:52:40 22.63, 150.11 06/01/2013 15:55:02 23.56, 146.14 419.27 142
2 06/02/2013 03:09:14 22.69, 153.51 06/02/2013 03:07:47 22.07, 150.56 310.87 87
3 06/14/2013 02:37:31 14.28, 162.98 06/14/2013 02:39:55 13.38, 159.03 437.60 144
4 06/14/2013 15:14:06 16.64, 158.78 06/14/2013 15:12:23 17.27, 155.73 331.26 103




NCC Satellite Simultaneous Nadir Overpasses (SNOs) Prediction Service
